| time (UTC) | temp F | wind direction | speed knots | gust knots | rain 1hr in | rain 24hr in | rain mn in | humidity % | barometer mb |
| 20260505193054 | 49 | 301 | 2.6 | 8.7 | 0.05 | 0.19 | 0.18 | 88 | 1010.8 |
| 20260505191605 | 49 | 27 | 1.7 | 6.1 | 0.06 | 0.18 | 0.17 | 89 | 1011.0 |
| 20260505190051 | 49 | 331 | 0.9 | 3.5 | 0.06 | 0.17 | 0.16 | 88 | 1011.4 |
| 20260505184552 | 50 | 346 | 0.9 | 5.2 | 0.06 | 0.16 | 0.15 | 88 | 1011.9 |
| 20260505183057 | 50 | 341 | 0.0 | 3.5 | 0.04 | 0.14 | 0.13 | 88 | 1011.6 |
| 20260505181556 | 50 | 304 | 0.9 | 4.3 | 0.02 | 0.12 | 0.11 | 85 | 1011.2 |
| 20260505180100 | 51 | 332 | 0.0 | 8.7 | 0.01 | 0.11 | 0.10 | 83 | 1011.4 |
| 20260505174553 | 51 | 0 | 0.9 | 4.3 | 0.00 | 0.10 | 0.09 | 80 | 1011.0 |
| 20260505173111 | 51 | 360 | 1.7 | 9.6 | 0.00 | 0.10 | 0.09 | 75 | 1010.9 |
| 20260505171610 | 51 | 16 | 0.9 | 6.1 | 0.00 | 0.10 | 0.09 | 75 | 1010.7 |
| 20260505170055 | 52 | 360 | 1.7 | 7.0 | 0.00 | 0.10 | 0.09 | 75 | 1010.8 |
| 20260505164601 | 52 | 329 | 2.6 | 7.0 | 0.00 | 0.10 | 0.09 | 73 | 1010.6 |
| 20260505163055 | 52 | 30 | 0.9 | 8.7 | 0.00 | 0.10 | 0.09 | 75 | 1010.3 |
| 20260505161557 | 52 | 59 | 0.9 | 4.3 | 0.00 | 0.10 | 0.09 | 74 | 1010.3 |
| 20260505153053 | 52 | 46 | 1.7 | 6.1 | 0.00 | 0.10 | 0.09 | 77 | 1009.6 |
| 20260505151555 | 51 | 40 | 1.7 | 7.8 | 0.00 | 0.10 | 0.09 | 77 | 1009.6 |
| 20260505150109 | 51 | 44 | 1.7 | 8.7 | 0.00 | 0.10 | 0.09 | 80 | 1009.1 |
| 20260505130103 | 50 | 28 | 0.9 | 7.0 | 0.00 | 0.08 | 0.06 | 74 | 1010.3 |
| 20260505124558 | 50 | 326 | 1.7 | 7.0 | 0.00 | 0.08 | 0.06 | 72 | 1010.6 |
| 20260505123104 | 51 | 351 | 2.6 | 7.8 | 0.00 | 0.08 | 0.06 | 70 | 1009.5 |
| 20260505121627 | 52 | 15 | 2.6 | 8.7 | 0.00 | 0.08 | 0.06 | 66 | 1009.9 |
| 20260505120057 | 53 | 350 | 2.6 | 9.6 | 0.00 | 0.08 | 0.06 | 66 | 1009.3 |
| 20260505114555 | 53 | 242 | 1.7 | 7.8 | 0.00 | 0.08 | 0.06 | 70 | 1009.0 |
| 20260505113104 | 53 | 27 | 0.9 | 7.0 | 0.00 | 0.08 | 0.06 | 71 | 1008.2 |
| 20260505111556 | 54 | 55 | 2.6 | 7.0 | 0.00 | 0.08 | 0.06 | 70 | 1007.3 |
| 20260505101557 | 55 | 252 | 1.7 | 7.8 | 0.01 | 0.08 | 0.06 | 72 | 1008.6 |
| 20260505100128 | 55 | 342 | 2.6 | 8.7 | 0.01 | 0.08 | 0.06 | 75 | 1007.8 |
| 20260505094554 | 55 | 339 | 2.6 | 9.6 | 0.01 | 0.08 | 0.06 | 74 | 1007.3 |
| 20260505093054 | 56 | 5 | 1.7 | 5.2 | 0.01 | 0.08 | 0.06 | 78 | 1006.8 |
| 20260505091616 | 56 | 291 | 2.6 | 10.4 | 0.00 | 0.07 | 0.05 | 73 | 1006.5 |
| 20260505090101 | 56 | 315 | 1.7 | 11.3 | 0.00 | 0.07 | 0.05 | 77 | 1005.7 |
| 20260505084553 | 56 | 55 | 2.6 | 9.6 | 0.00 | 0.07 | 0.05 | 83 | 1005.7 |
| 20260505083054 | 57 | 348 | 0.9 | 7.0 | 0.00 | 0.07 | 0.05 | 91 | 1005.7 |
| 20260505081554 | 57 | 329 | 1.7 | 5.2 | 0.00 | 0.07 | 0.05 | 92 | 1005.6 |
| 20260505080215 | 58 | 220 | 0.0 | 2.6 | 0.00 | 0.07 | 0.05 | 94 | 1005.8 |
| 20260505074556 | 58 | 0 | 0.9 | 2.6 | 0.00 | 0.07 | 0.05 | 94 | 1006.1 |
| 20260505073100 | 58 | 211 | 0.9 | 2.6 | 0.00 | 0.07 | 0.05 | 94 | 1006.1 |
| 20260505071551 | 58 | 210 | 0.0 | 1.7 | 0.00 | 0.07 | 0.05 | 94 | 1005.7 |
| 20260505070057 | 58 | 210 | 0.0 | 2.6 | 0.00 | 0.07 | 0.05 | 93 | 1005.3 |
| 20260505064607 | 58 | 209 | 0.9 | 2.6 | 0.00 | 0.07 | 0.05 | 93 | 1005.9 |
| 20260505063054 | 58 | 0 | 0.0 | 2.6 | 0.00 | 0.07 | 0.05 | 92 | 1005.6 |
| 20260505061551 | 59 | 0 | 0.0 | 0.9 | 0.02 | 0.07 | 0.05 | 92 | 1004.4 |
| 20260505060058 | 59 | 0 | 0.0 | 1.7 | 0.05 | 0.07 | 0.05 | 91 | 1004.5 |
| 20260505054620 | 60 | 208 | 0.9 | 2.6 | 0.06 | 0.07 | 0.05 | 90 | 1004.8 |
| 20260505053058 | 61 | 200 | 0.9 | 5.2 | 0.06 | 0.07 | 0.05 | 87 | 1004.2 |
| 20260505051556 | 63 | 302 | 0.9 | 3.5 | 0.04 | 0.05 | 0.03 | 84 | 1005.2 |
| 20260505041609 | 67 | 171 | 0.9 | 8.7 | 0.00 | 0.01 | 0.01 | 76 | 1001.7 |
| 20260505040058 | 67 | 192 | 0.9 | 4.3 | 0.00 | 0.01 | 0.01 | 77 | 1001.5 |
| 20260505034552 | 67 | 180 | 1.7 | 7.0 | 0.00 | 0.01 | 0.01 | 77 | 1001.4 |
| 20260505033054 | 67 | 180 | 0.9 | 4.3 | 0.00 | 0.01 | 0.01 | 77 | 1001.4 |
| 20260505031555 | 66 | 184 | 0.9 | 4.3 | 0.00 | 0.01 | 0.01 | 77 | 1001.7 |
| 20260505024601 | 67 | 188 | 1.7 | 4.3 | 0.00 | 0.01 | 0.01 | 76 | 1001.8 |
| 20260505023058 | 67 | 190 | 0.9 | 4.3 | 0.00 | 0.01 | 0.01 | 75 | 1001.7 |
| 20260505021558 | 67 | 202 | 0.9 | 6.1 | 0.00 | 0.01 | 0.01 | 75 | 1001.7 |
| 20260505020104 | 68 | 192 | 1.7 | 6.1 | 0.00 | 0.01 | 0.01 | 74 | 1001.3 |
| 20260505014551 | 68 | 184 | 1.7 | 4.3 | 0.00 | 0.01 | 0.01 | 72 | 1001.2 |
| 20260505013054 | 69 | 173 | 0.0 | 3.5 | 0.00 | 0.01 | 0.01 | 71 | 1001.2 |
| 20260505011556 | 69 | 182 | 0.9 | 4.3 | 0.00 | 0.01 | 0.01 | 69 | 1001.1 |
| 20260505010111 | 70 | 194 | 2.6 | 10.4 | 0.00 | 0.01 | 0.01 | 67 | 1000.9 |
| 20260505004554 | 70 | 165 | 1.7 | 7.8 | 0.00 | 0.01 | 0.01 | 67 | 1000.8 |
| 20260505003054 | 72 | 180 | 2.6 | 11.3 | 0.00 | 0.01 | 0.01 | 64 | 1000.7 |
| 20260505001552 | 73 | 192 | 3.5 | 11.3 | 0.00 | 0.01 | 0.01 | 60 | 1000.8 |
| 20260505000101 | 74 | 191 | 2.6 | 9.6 | 0.00 | 0.01 | 0.01 | 60 | 1000.8 |
| 20260504234554 | 75 | 205 | 3.5 | 9.6 | 0.00 | 0.01 | 0.01 | 59 | 1000.9 |
| 20260504233057 | 75 | 191 | 2.6 | 9.6 | 0.00 | 0.01 | 0.01 | 59 | 1001.3 |
| 20260504231554 | 76 | 186 | 0.9 | 9.6 | 0.00 | 0.01 | 0.01 | 58 | 1001.6 |
| 20260504230114 | 76 | 198 | 3.5 | 11.3 | 0.00 | 0.01 | 0.01 | 57 | 1002.0 |
| 20260504224612 | 76 | 179 | 4.3 | 15.6 | 0.00 | 0.01 | 0.01 | 58 | 1002.2 |
| 20260504223054 | 77 | 193 | 4.3 | 15.6 | 0.00 | 0.01 | 0.01 | 57 | 1002.2 |
| 20260504221556 | 76 | 157 | 3.5 | 7.8 | 0.00 | 0.01 | 0.01 | 60 | 1002.4 |
| 20260504220100 | 75 | 192 | 4.3 | 13.9 | 0.00 | 0.01 | 0.01 | 59 | 1002.5 |
| 20260504214555 | 77 | 186 | 5.2 | 15.6 | 0.00 | 0.01 | 0.01 | 56 | 1002.7 |
| 20260504213100 | 76 | 165 | 5.2 | 13.9 | 0.00 | 0.01 | 0.01 | 58 | 1002.7 |
| 20260504211600 | 76 | 165 | 5.2 | 19.1 | 0.00 | 0.01 | 0.01 | 59 | 1002.8 |
| 20260504204556 | 76 | 142 | 6.1 | 23.5 | 0.00 | 0.01 | 0.01 | 56 | 1002.7 |
| 20260504203056 | 77 | 186 | 6.1 | 20.0 | 0.00 | 0.01 | 0.01 | 57 | 1003.0 |
| 20260504201611 | 76 | 194 | 3.5 | 15.6 | 0.00 | 0.01 | 0.01 | 58 | 1003.2 |
| 20260504194551 | 76 | 155 | 5.2 | 17.4 | 0.00 | 0.01 | 0.01 | 57 | 1003.4 |